User: anonymous   Login
Location: Carbonear
(47.7333°N, 53.2500°W)
Time: 11:47:03
(UTC+00:00)
Language:

STARS - Orbit

View from above orbital plane
View from above orbital plane
View from above satellite
View from above satellite

Ground track
Ground track

The orbit data is extracted from the following two-line orbital elements,

1 33498U 09002G   22341.97791859  .00002365  00000-0  31543-3 0  9990
2 33498  98.1506 236.7697 0011856  55.4906 304.7424 14.80544793747522
Epoch (UTC): 07 December 2022 23:28:12
Eccentricity: 0.0011856
inclination: 98.1506°
perigee height: 619 km
apogee height: 636 km
right ascension of ascending node: 236.7697°
argument of perigee: 55.4906°
revolutions per day: 14.80544793
mean anomaly at epoch: 304.7424°
orbit number at epoch: 74752

The dashed part of the orbit path shows where the satellite is in the earth's shadow,  

DLR